period_start,C,m1,H,J0,J1,J2,J3,J4,J5,JA,JB,JC,JD,JJ,JK,JN,#
2014-12-29 00:01:33,0.14,4.61,0.00,24.14,27.53,30.42,4.74,27.22,1013.20,2029.99,2025.70,2221.80,2413.03,349.98,345.17,30.44,0000 0000 0000 0000 000000
2014-12-29 00:06:34,0.17,4.62,0.00,24.08,27.53,30.40,4.81,27.25,1013.20,2029.99,2024.50,2221.02,2412.19,350.40,345.67,30.47,0000 0000 0000 0000 000000
2014-12-29 00:11:35,0.17,4.62,0.00,24.07,27.53,30.28,4.79,27.35,1013.17,2029.99,2023.52,2220.17,2411.46,350.44,345.55,30.50,0000 0000 0000 0000 000000
2014-12-29 00:16:36,0.10,4.63,0.00,24.11,27.53,30.24,4.74,27.23,1012.99,2029.99,2022.67,2219.70,2410.85,350.22,345.37,30.53,0000 0000 0000 0000 000000
2014-12-29 00:21:37,0.13,4.63,0.00,24.16,27.54,30.22,4.73,27.19,1012.85,2029.99,2021.70,2218.98,2410.03,350.23,345.28,30.56,0000 0000 0000 0000 000000
2014-12-29 00:26:39,0.14,4.64,0.00,24.07,27.55,30.23,4.80,27.34,1012.76,2029.99,2020.92,2218.16,2409.27,350.70,345.83,30.59,0000 0000 0000 0000 000000
2014-12-29 00:31:40,0.14,4.64,0.00,24.09,27.55,30.22,4.72,27.26,1012.73,2029.98,2020.04,2217.68,2408.67,349.67,345.01,30.61,0000 0000 0000 0000 000000
2014-12-29 00:36:41,0.10,4.64,0.00,24.08,27.55,30.20,4.72,27.14,1012.74,2029.99,2019.17,2217.01,2407.98,349.27,344.29,30.64,0000 0000 0000 0000 000000
2014-12-29 00:41:43,0.17,4.65,0.00,24.11,27.55,30.22,4.73,27.31,1012.81,2029.97,2018.17,2216.22,2407.13,350.22,345.08,30.67,0000 0000 0000 0000 000000
2014-12-29 00:46:44,0.12,4.65,0.00,24.09,27.55,30.27,4.73,27.32,1012.74,2029.97,2017.32,2215.78,2406.55,349.52,344.63,30.70,0000 0000 0000 0000 000000
2014-12-29 00:51:45,0.12,4.66,0.00,24.01,27.55,30.33,4.75,27.26,1012.74,2029.97,2016.43,2215.03,2405.91,350.16,345.62,30.73,0000 0000 0000 0000 000000
2014-12-29 00:56:46,0.16,4.66,0.00,24.09,27.55,30.35,4.71,27.26,1012.73,2029.99,2015.68,2214.42,2405.11,350.02,344.95,30.76,0000 0000 0000 0000 000000
2014-12-29 01:01:48,0.06,4.66,0.00,24.13,27.55,30.42,4.73,27.29,1012.72,2029.97,2014.94,2213.99,2404.66,349.96,344.87,30.79,0000 0000 0000 0000 000000
2014-12-29 01:06:49,0.14,4.67,0.00,24.16,27.55,30.37,4.73,27.32,1012.72,2029.98,2014.09,2213.34,2404.01,349.66,344.86,30.82,0000 0000 0000 0000 000000
2014-12-29 01:11:50,0.09,4.67,0.00,24.11,27.55,30.32,4.77,27.22,1012.71,2029.97,2013.33,2212.97,2403.44,350.71,345.35,30.85,0000 0000 0000 0000 000000
2014-12-29 01:16:51,0.11,4.67,0.00,24.11,27.55,30.40,4.67,27.25,1012.71,2029.99,2012.78,2212.24,2402.98,350.33,345.35,30.88,0000 0000 0000 0000 000000
2014-12-29 01:21:53,0.09,4.68,0.00,24.16,27.55,30.43,4.76,27.36,1012.69,2029.98,2012.01,2211.96,2402.25,350.07,345.06,30.91,0000 0000 0000 0000 000000
2014-12-29 01:26:54,0.14,4.68,0.00,24.13,27.55,30.45,4.76,27.32,1012.65,2029.99,2011.19,2211.18,2401.87,349.76,344.79,30.94,0000 0000 0000 0000 000000
2014-12-29 01:31:55,0.09,4.68,0.00,24.09,27.55,30.46,4.67,27.31,1012.51,2029.98,2010.55,2210.94,2401.09,349.07,344.05,30.97,0000 0000 0000 0000 000000
2014-12-29 01:36:56,0.12,4.69,0.00,24.08,27.55,30.47,4.69,27.17,1012.54,2029.99,2009.85,2210.16,2400.67,350.06,345.17,30.99,0000 0000 0000 0000 000000
2014-12-29 01:41:58,0.08,4.69,0.00,24.11,27.55,30.48,4.75,27.24,1012.55,2029.98,2009.05,2209.83,2400.01,350.65,345.50,31.02,0000 0000 0000 0000 000000
2014-12-29 01:46:59,0.15,4.69,0.00,24.15,27.55,30.49,4.69,27.18,1012.61,2029.98,2008.43,2209.06,2399.40,349.78,344.65,31.05,0000 0000 0000 0000 000000
2014-12-29 01:52:00,0.06,4.69,0.00,24.16,27.55,30.47,4.76,27.23,1012.67,2029.99,2007.77,2208.81,2398.89,349.99,344.78,31.08,0000 0000 0000 0000 000000
2014-12-29 01:57:02,0.15,4.70,0.00,24.11,27.55,30.46,4.76,27.23,1012.65,2029.98,2006.87,2208.03,2398.06,349.84,344.85,31.11,0000 0000 0000 0000 000000
2014-12-29 02:02:03,0.15,4.70,0.00,24.05,27.55,30.46,4.64,27.05,1012.70,2029.97,2006.00,2207.45,2397.48,349.97,345.09,31.14,0000 0000 0000 0000 000000
2014-12-29 02:07:04,0.10,4.71,0.00,24.07,27.55,30.46,4.67,27.29,1012.69,2029.97,2005.07,2206.88,2396.89,349.54,344.68,31.17,0000 0000 0000 0000 000000
2014-12-29 02:12:06,0.16,4.71,0.00,24.10,27.54,30.48,4.72,27.24,1012.67,2029.99,2004.15,2206.10,2396.09,349.71,344.71,31.20,0000 0000 0000 0000 000000
2014-12-29 02:17:07,0.08,4.71,0.00,24.15,27.54,30.46,4.78,27.37,1012.68,2029.99,2003.58,2205.86,2395.74,350.50,345.43,31.23,0000 0000 0000 0000 000000
2014-12-29 02:22:08,0.13,4.72,0.00,24.16,27.54,30.45,4.79,27.23,1012.69,2029.99,2002.76,2205.07,2395.02,350.21,345.27,31.26,0000 0000 0000 0000 000000
2014-12-29 02:27:10,0.11,4.72,0.00,24.10,27.53,30.47,4.74,27.21,1012.58,2029.99,2001.97,2204.72,2394.41,350.84,345.86,31.29,0000 0000 0000 0000 000000
2014-12-29 02:32:11,0.11,4.73,0.00,24.08,27.53,30.48,4.73,27.27,1012.49,2029.99,2001.10,2204.03,2393.93,349.46,344.82,31.32,0000 0000 0000 0000 000000
2014-12-29 02:37:12,0.15,4.73,0.00,24.05,27.52,30.46,4.75,27.24,1012.53,2029.99,2000.38,2203.59,2393.13,350.73,345.71,31.35,0000 0000 0000 0000 000000
2014-12-29 02:42:13,0.07,4.73,0.00,24.09,27.52,30.46,4.72,27.37,1012.34,2029.99,1999.72,2203.01,2392.79,350.00,344.95,31.37,0000 0000 0000 0000 000000
2014-12-29 02:47:15,0.13,4.74,0.00,24.14,27.52,30.48,4.76,27.32,1012.35,2029.99,1999.01,2202.49,2392.06,349.80,344.81,31.40,0000 0000 0000 0000 000000
2014-12-29 02:52:16,0.10,4.74,0.00,24.04,27.52,30.49,4.71,27.17,1012.46,2029.99,1998.26,2201.98,2391.58,348.93,343.93,31.43,0000 0000 0000 0000 000000
2014-12-29 02:57:18,0.14,4.74,0.00,24.04,27.52,30.46,4.75,27.22,1012.33,2029.99,1997.51,2201.26,2390.92,349.90,345.04,31.46,0000 0000 0000 0000 000000
2014-12-29 03:02:19,0.06,4.75,0.00,24.08,27.52,30.47,4.71,27.23,1012.53,2029.99,1996.88,2200.96,2390.12,349.44,344.58,31.49,0000 0000 0000 0000 000000
2014-12-29 03:07:20,0.18,4.75,0.00,24.11,27.52,30.46,4.80,27.19,1012.56,2029.99,1995.88,2200.14,2389.59,350.11,345.15,31.52,0000 0000 0000 0000 000000
2014-12-29 03:12:21,0.10,4.75,0.00,24.11,27.52,30.48,4.81,27.29,1012.67,2029.99,1995.01,2199.69,2389.00,350.38,345.36,31.55,0000 0000 0000 0000 000000
2014-12-29 03:17:23,0.14,4.76,0.00,24.15,27.52,30.48,4.73,27.26,1012.71,2029.99,1994.13,2199.01,2388.21,349.49,344.41,31.58,0000 0000 0000 0000 000000
2014-12-29 03:22:24,0.17,4.76,0.00,24.11,27.52,30.49,4.77,27.33,1012.71,2030.00,1993.20,2198.29,2387.55,350.18,345.15,31.61,0000 0000 0000 0000 000000
2014-12-29 03:27:25,0.12,4.77,0.00,24.06,27.52,30.46,4.72,27.13,1012.71,2030.00,1992.23,2197.73,2386.89,350.04,344.96,31.64,0000 0000 0000 0000 000000
2014-12-29 03:32:26,0.13,4.77,0.00,24.13,27.52,30.47,4.74,27.16,1012.71,2030.00,1991.44,2197.01,2386.07,349.82,344.84,31.67,0000 0000 0000 0000 000000
2014-12-29 03:37:28,0.15,4.77,0.00,24.09,27.52,30.49,4.76,27.22,1012.71,2030.00,1990.70,2196.40,2385.48,350.14,345.21,31.70,0000 0000 0000 0000 000000
2014-12-29 03:42:29,0.05,4.78,0.00,24.13,27.52,30.49,4.76,27.19,1012.71,2030.00,1989.94,2195.95,2384.96,350.57,345.60,31.73,0000 0000 0000 0000 000000
2014-12-29 03:47:30,0.17,4.78,0.00,24.13,27.52,30.46,4.77,27.34,1012.71,2030.00,1989.12,2195.17,2384.16,350.17,345.25,31.76,0000 0000 0000 0000 000000
2014-12-29 03:52:31,0.13,4.78,0.00,24.17,27.52,30.44,4.73,27.27,1012.72,2030.00,1988.28,2194.74,2383.56,349.63,344.66,31.78,0000 0000 0000 0000 000000
2014-12-29 03:57:32,0.10,4.79,0.00,24.19,27.52,30.43,4.81,27.27,1012.72,2029.99,1987.56,2194.03,2382.98,350.54,345.51,31.81,0000 0000 0000 0000 000000
2014-12-29 04:02:34,0.13,4.79,0.00,24.15,27.52,30.44,4.77,27.18,1012.72,2029.99,1986.83,2193.52,2382.19,349.73,344.80,31.84,0000 0000 0000 0000 000000
2014-12-29 04:07:35,0.11,4.79,0.00,24.20,27.52,30.42,4.77,27.31,1012.73,2029.98,1985.86,2192.93,2381.61,350.46,345.28,31.87,0000 0000 0000 0000 000000
2014-12-29 04:12:36,0.16,4.80,0.00,24.19,27.52,30.44,4.75,27.32,1012.73,2029.98,1984.84,2192.11,2380.83,350.02,344.92,31.90,0000 0000 0000 0000 000000
2014-12-29 04:17:38,0.14,4.80,0.00,24.20,27.52,30.44,4.78,27.27,1012.72,2029.99,1984.03,2191.43,2380.05,350.37,345.16,31.93,0000 0000 0000 0000 000000
2014-12-29 04:22:39,0.11,4.81,0.00,24.16,27.52,30.41,4.75,27.27,1012.72,2029.98,1983.27,2190.96,2379.36,349.91,344.91,31.96,0000 0000 0000 0000 000000
2014-12-29 04:27:41,0.15,4.81,0.00,24.23,27.52,30.43,4.75,27.14,1012.72,2029.99,1982.44,2190.12,2378.76,350.13,345.28,31.99,0000 0000 0000 0000 000000
2014-12-29 04:32:42,0.14,4.81,0.00,24.20,27.52,30.45,4.77,27.20,1012.71,2029.99,1981.58,2189.65,2377.99,350.33,345.42,32.02,0000 0000 0000 0000 000000
2014-12-29 04:37:43,0.14,4.82,0.00,24.19,27.52,30.43,4.78,27.31,1012.73,2029.99,1980.42,2188.95,2377.15,350.40,345.40,32.05,0000 0000 0000 0000 000000
2014-12-29 04:42:45,0.16,4.82,0.00,24.20,27.51,30.39,4.79,27.36,1012.73,2029.99,1979.64,2188.09,2376.54,350.58,345.39,32.08,0000 0000 0000 0000 000000
2014-12-29 04:47:46,0.09,4.83,0.00,24.23,27.50,30.46,4.71,27.25,1012.72,2029.99,1978.80,2187.72,2375.98,349.99,344.96,32.11,0000 0000 0000 0000 000000
2014-12-29 04:52:48,0.12,4.83,0.00,24.23,27.50,30.45,4.86,27.27,1012.72,2029.99,1977.99,2187.03,2375.16,350.52,345.38,32.14,0000 0000 0000 0000 000000
2014-12-29 04:57:49,0.15,4.83,0.00,24.22,27.50,30.37,4.72,27.04,1012.74,2029.99,1977.36,2186.49,2374.61,349.77,344.80,32.17,0000 0000 0000 0000 000000
2014-12-29 05:02:50,0.11,4.84,0.00,24.27,27.50,30.35,4.78,27.22,1012.76,2029.99,1976.27,2185.85,2373.92,349.93,344.81,32.19,0000 0000 0000 0000 000000
2014-12-29 05:07:51,0.15,4.84,0.00,24.27,27.50,30.37,4.77,27.16,1012.84,2029.99,1975.43,2185.08,2373.13,350.51,345.14,32.22,0000 0000 0000 0000 000000
2014-12-29 05:12:53,0.16,4.85,0.00,24.22,27.50,30.37,4.76,27.25,1012.98,2029.99,1974.52,2184.54,2372.50,349.83,344.86,32.25,0000 0000 0000 0000 000000
2014-12-29 05:17:54,0.07,4.85,0.00,24.25,27.50,30.37,4.73,27.10,1012.99,2029.99,1973.71,2183.99,2371.95,349.62,344.62,32.28,0000 0000 0000 0000 000000
2014-12-29 05:22:55,0.14,4.86,0.00,24.23,27.50,30.34,4.75,27.22,1013.15,2029.99,1972.94,2183.28,2371.15,350.21,345.54,32.31,0000 0000 0000 0000 000000
2014-12-29 05:27:56,0.10,4.86,0.00,24.14,27.50,30.34,4.71,27.16,1013.17,2029.99,1972.27,2182.87,2370.63,349.44,344.52,32.34,0000 0000 0000 0000 000000
2014-12-29 05:32:58,0.14,4.86,0.00,24.15,27.50,30.41,4.76,27.16,1013.14,2029.98,1971.41,2182.08,2369.88,350.04,345.33,32.37,0000 0000 0000 0000 000000
2014-12-29 05:37:59,0.20,4.87,0.00,24.12,27.50,30.39,4.77,27.42,1013.17,2029.98,1970.04,2181.27,2369.02,349.75,344.98,32.40,0000 0000 0000 0000 000000
2014-12-29 05:43:00,0.13,4.87,0.00,24.13,27.50,30.43,4.71,27.32,1013.19,2029.98,1969.05,2180.73,2368.15,349.72,344.96,32.43,0000 0000 0000 0000 000000
2014-12-29 05:48:01,0.15,4.88,0.00,24.15,27.50,30.45,4.72,27.09,1013.17,2029.99,1968.20,2180.00,2367.46,350.01,345.17,32.46,0000 0000 0000 0000 000000
2014-12-29 05:53:02,0.14,4.88,0.00,24.07,27.50,30.47,4.72,27.16,1013.19,2029.99,1967.25,2179.17,2366.95,349.78,344.98,32.49,0000 0000 0000 0000 000000
2014-12-29 05:58:04,0.16,4.89,0.00,24.11,27.50,30.45,4.72,27.13,1013.18,2029.99,1966.27,2178.57,2366.15,349.61,345.23,32.52,0000 0000 0000 0000 000000
2014-12-29 06:03:06,0.14,4.89,0.00,24.14,27.50,30.37,4.73,27.25,1013.17,2029.99,1965.18,2177.87,2365.35,350.07,345.28,32.55,0000 0000 0000 0000 000000
2014-12-29 06:08:07,0.16,4.90,0.00,24.16,27.50,30.38,4.86,27.19,1013.18,2029.99,1964.19,2177.06,2364.52,350.38,345.55,32.58,0000 0000 0000 0000 000000
2014-12-29 06:13:09,0.08,4.90,0.00,24.08,27.50,30.43,4.73,27.31,1013.20,2029.99,1963.84,2176.61,2363.92,350.07,345.46,32.61,0000 0000 0000 0000 000000
2014-12-29 06:18:10,0.21,4.90,0.00,24.09,27.50,30.45,4.75,27.23,1013.20,2029.99,1962.51,2175.69,2363.07,350.05,345.29,32.63,0000 0000 0000 0000 000000
2014-12-29 06:23:11,0.14,4.91,0.00,24.11,27.50,30.45,4.75,27.23,1013.21,2029.99,1961.44,2175.00,2362.18,349.61,345.00,32.66,0000 0000 0000 0000 000000
2014-12-29 06:28:13,0.29,4.91,0.00,24.20,27.50,30.44,4.77,27.37,1013.23,2029.99,1959.86,2173.91,2361.08,350.11,345.24,32.69,0000 0000 0000 0000 000000
2014-12-29 06:33:14,0.31,4.92,0.00,24.13,27.50,30.40,4.76,27.24,1013.30,2029.99,1957.77,2172.55,2359.63,350.17,345.40,32.72,0000 0000 0000 0000 000000
2014-12-29 06:38:15,0.21,4.93,0.00,24.03,27.50,30.41,4.72,27.34,1013.45,2029.97,1956.17,2171.54,2358.48,349.74,345.19,32.75,0000 0000 0000 0000 000000
2014-12-29 06:43:17,0.22,4.94,0.00,24.07,27.49,30.43,4.75,27.16,1013.62,2029.98,1954.80,2170.46,2357.31,350.17,345.50,32.78,0000 0000 0000 0000 000000
2014-12-29 06:48:18,0.15,4.94,0.00,24.10,27.49,30.43,4.75,27.18,1013.68,2029.99,1953.69,2169.78,2356.64,350.63,346.02,32.81,0000 0000 0000 0000 000000
2014-12-29 06:53:20,0.20,4.95,0.00,24.08,27.49,30.45,4.86,27.37,1013.65,2029.99,1952.45,2168.84,2355.67,350.71,346.02,32.84,0000 0000 0000 0000 000000
2014-12-29 06:58:21,0.21,4.96,0.00,24.04,27.49,30.44,4.74,27.18,1013.67,2029.99,1951.16,2167.90,2354.57,349.76,345.12,32.87,0000 0000 0000 0000 000000
2014-12-29 07:03:22,0.25,4.96,0.00,24.07,27.49,30.44,4.72,27.23,1013.68,2029.98,1949.56,2166.78,2353.43,349.85,345.41,32.90,0000 0000 0000 0000 000000
2014-12-29 07:08:24,0.18,4.97,0.00,24.12,27.50,30.47,4.73,27.24,1013.69,2029.98,1948.30,2165.82,2352.42,350.42,345.67,32.93,0000 0000 0000 0000 000000
2014-12-29 07:13:25,0.16,4.98,0.00,24.09,27.50,30.45,4.75,27.18,1013.67,2029.97,1947.10,2165.01,2351.32,349.91,345.48,32.96,0000 0000 0000 0000 000000
2014-12-29 07:18:26,0.17,4.98,0.00,24.08,27.50,30.47,4.76,27.23,1013.69,2029.96,1946.29,2164.18,2350.58,349.66,345.18,32.99,0000 0000 0000 0000 000000
2014-12-29 07:23:27,0.19,4.99,0.00,24.02,27.50,30.47,4.73,27.27,1013.69,2029.94,1945.07,2163.25,2349.57,350.01,345.52,33.02,0000 0000 0000 0000 000000
2014-12-29 07:28:29,0.26,4.99,0.00,24.08,27.50,30.47,4.80,27.09,1013.69,2029.96,1943.40,2162.27,2348.48,350.55,345.98,33.05,0000 0000 0000 0000 000000
2014-12-29 07:33:30,0.19,5.00,0.00,24.13,27.50,30.47,4.76,27.20,1013.69,2029.95,1942.01,2161.17,2347.50,350.33,345.75,33.07,0000 0000 0000 0000 000000
2014-12-29 07:38:31,0.18,5.00,0.00,24.07,27.50,30.49,4.76,27.39,1013.69,2029.94,1941.02,2160.60,2346.64,350.49,345.87,33.10,0000 0000 0000 0000 000000
2014-12-29 07:43:32,0.18,5.01,0.00,24.12,27.50,30.48,4.77,27.25,1013.69,2029.97,1939.70,2159.74,2345.73,350.20,345.56,33.13,0000 0000 0000 0000 000000
2014-12-29 07:48:34,0.12,5.01,0.00,24.14,27.50,30.49,4.72,27.29,1013.69,2029.95,1938.75,2158.99,2344.90,349.60,344.86,33.16,0000 0000 0000 0000 000000
2014-12-29 07:53:35,0.21,5.02,0.00,24.16,27.50,30.47,4.79,27.34,1013.69,2029.91,1937.58,2158.09,2343.95,350.34,345.76,33.19,0000 0000 0000 0000 000000
2014-12-29 07:58:37,0.19,5.03,0.00,24.18,27.50,30.46,4.77,27.28,1013.69,2029.93,1936.35,2157.14,2342.95,349.53,344.88,33.22,0000 0000 0000 0000 000000
2014-12-29 08:03:38,0.17,5.03,0.00,24.17,27.50,30.46,4.73,27.38,1013.69,2029.92,1935.48,2156.49,2342.04,349.82,345.13,33.25,0000 0000 0000 0000 000000
2014-12-29 08:08:40,0.26,5.04,0.00,24.15,27.50,30.46,4.76,27.12,1013.69,2029.95,1933.96,2155.37,2341.02,350.04,345.30,33.28,0000 0000 0000 0000 000000
2014-12-29 08:13:41,0.22,5.04,0.00,24.14,27.49,30.44,4.78,27.38,1013.69,2029.93,1932.29,2154.34,2339.93,349.93,345.10,33.31,0000 0000 0000 0000 000000
2014-12-29 08:18:43,0.20,5.05,0.00,24.21,27.49,30.44,4.70,27.22,1013.69,2029.95,1931.02,2153.38,2339.02,349.69,345.00,33.34,0000 0000 0000 0000 000000
2014-12-29 08:23:44,0.18,5.06,0.00,24.21,27.49,30.43,4.72,27.25,1013.69,2029.97,1929.79,2152.70,2338.05,349.80,345.07,33.37,0000 0000 0000 0000 000000
2014-12-29 08:28:45,0.24,5.06,0.00,24.21,27.49,30.43,4.73,27.27,1013.69,2029.97,1928.29,2151.68,2337.09,349.97,345.28,33.40,0000 0000 0000 0000 000000
2014-12-29 08:33:46,0.16,5.07,0.00,24.21,27.48,30.43,4.76,27.21,1013.71,2029.98,1927.11,2150.87,2336.17,349.75,345.20,33.43,0000 0000 0000 0000 000000
2014-12-29 08:38:47,0.23,5.07,0.00,24.19,27.48,30.46,4.69,27.21,1013.69,2029.98,1925.70,2149.95,2335.29,349.51,344.73,33.46,0000 0000 0000 0000 000000
2014-12-29 08:43:48,0.18,5.08,0.00,24.19,27.47,30.42,4.75,27.16,1013.71,2029.98,1924.57,2149.09,2334.34,349.16,344.35,33.48,0000 0000 0000 0000 000000
2014-12-29 08:48:50,0.10,5.08,0.00,24.20,27.47,30.43,4.73,27.32,1013.71,2029.97,1923.93,2148.57,2333.70,349.92,345.34,33.51,0000 0000 0000 0000 000000
2014-12-29 08:53:51,0.27,5.09,0.00,24.22,27.47,30.42,4.73,27.15,1013.73,2029.98,1922.52,2147.50,2332.55,349.76,344.99,33.54,0000 0000 0000 0000 000000
2014-12-29 08:58:52,0.19,5.10,0.00,24.20,27.47,30.42,4.71,27.23,1013.75,2029.97,1921.04,2146.59,2331.61,349.67,345.10,33.57,0000 0000 0000 0000 000000
2014-12-29 09:03:54,0.13,5.10,0.00,24.21,27.47,30.43,4.76,27.28,1013.97,2029.95,1919.96,2145.82,2330.75,350.10,345.30,33.60,0000 0000 0000 0000 000000
2014-12-29 09:08:55,0.20,5.11,0.00,24.16,27.47,30.40,4.67,27.06,1014.11,2029.98,1918.82,2144.94,2329.82,349.56,345.09,33.63,0000 0000 0000 0000 000000
2014-12-29 09:13:56,0.22,5.11,0.00,24.17,27.47,30.40,4.77,27.23,1014.16,2029.97,1917.45,2144.00,2328.82,350.24,345.58,33.66,0000 0000 0000 0000 000000
2014-12-29 09:18:57,0.19,5.12,0.00,24.23,27.47,30.45,4.77,27.27,1014.17,2029.96,1916.17,2143.06,2327.85,350.20,345.55,33.69,0000 0000 0000 0000 000000
2014-12-29 09:23:59,0.24,5.13,0.00,24.20,27.47,30.41,4.74,27.23,1014.17,2029.96,1914.76,2142.09,2326.80,350.12,345.38,33.72,0000 0000 0000 0000 000000
2014-12-29 09:29:00,0.22,5.13,0.00,24.24,27.47,30.44,4.75,27.40,1014.18,2029.97,1913.39,2141.12,2325.72,350.29,345.74,33.75,0000 0000 0000 0000 000000
2014-12-29 09:34:01,0.20,5.14,0.00,24.20,27.47,30.44,4.68,27.23,1014.20,2029.98,1912.04,2140.18,2324.78,349.70,345.05,33.78,0000 0000 0000 0000 000000
2014-12-29 09:39:02,0.25,5.15,0.00,24.16,27.47,30.38,4.71,27.32,1014.25,2029.99,1910.60,2139.25,2323.71,349.81,345.54,33.81,0000 0000 0000 0000 000000
2014-12-29 09:44:03,0.17,5.15,0.00,24.20,27.47,30.41,4.78,27.35,1014.29,2029.98,1909.46,2138.40,2322.99,350.32,345.55,33.84,0000 0000 0000 0000 000000
2014-12-29 09:49:04,0.12,5.16,0.00,24.20,27.47,30.43,4.79,27.37,1014.43,2029.99,1908.59,2137.81,2322.15,350.56,346.14,33.87,0000 0000 0000 0000 000000
2014-12-29 09:54:05,0.21,5.16,0.00,24.21,27.47,30.42,4.79,27.27,1014.53,2029.99,1907.38,2136.86,2321.18,350.01,345.83,33.90,0000 0000 0000 0000 000000
2014-12-29 09:59:07,0.22,5.17,0.00,24.22,27.47,30.42,4.77,27.25,1014.63,2029.99,1905.88,2135.93,2320.09,349.88,345.36,33.92,0000 0000 0000 0000 000000
2014-12-29 10:04:08,0.20,5.18,0.00,24.18,27.47,30.41,4.70,27.15,1014.66,2029.99,1904.81,2134.97,2319.25,349.78,345.52,33.95,0000 0000 0000 0000 000000
2014-12-29 10:09:09,0.23,5.18,0.00,24.16,27.47,30.41,4.80,27.29,1014.65,2029.98,1903.46,2133.95,2318.10,350.22,345.97,33.98,0000 0000 0000 0000 000000
2014-12-29 10:14:10,0.24,5.19,0.00,24.20,27.47,30.42,4.73,27.25,1014.66,2029.99,1902.05,2132.89,2316.90,350.28,345.80,34.01,0000 0000 0000 0000 000000
2014-12-29 10:19:12,0.24,5.19,0.00,24.23,27.47,30.42,4.73,27.20,1014.66,2029.99,1900.51,2131.83,2315.79,349.57,345.01,34.04,0000 0000 0000 0000 000000
2014-12-29 10:24:13,0.18,5.20,0.00,24.19,27.47,30.41,4.71,27.26,1014.68,2029.99,1899.24,2130.94,2314.82,349.87,345.50,34.07,0000 0000 0000 0000 000000
2014-12-29 10:29:14,0.19,5.21,0.00,24.19,27.47,30.38,4.75,27.27,1014.68,2029.98,1898.10,2130.03,2313.88,349.69,345.34,34.10,0000 0000 0000 0000 000000
2014-12-29 10:34:16,0.22,5.21,0.00,24.19,27.47,30.40,4.77,27.20,1014.69,2029.97,1896.85,2129.11,2312.87,350.47,346.08,34.13,0000 0000 0000 0000 000000
2014-12-29 10:39:17,0.23,5.22,0.00,24.23,27.47,30.42,4.77,27.18,1014.72,2029.97,1895.48,2128.21,2311.84,350.63,346.15,34.16,0000 0000 0000 0000 000000
2014-12-29 10:44:18,0.15,5.23,0.00,24.20,27.47,30.43,4.72,27.25,1014.91,2029.96,1894.59,2127.38,2310.97,350.10,345.78,34.19,0000 0000 0000 0000 000000
2014-12-29 10:49:20,0.22,5.23,0.00,24.24,27.47,30.39,4.72,27.12,1014.97,2029.97,1893.19,2126.40,2310.04,349.51,344.97,34.22,0000 0000 0000 0000 000000
2014-12-29 10:54:21,0.19,5.24,0.00,24.26,27.47,30.43,4.77,27.32,1014.94,2029.97,1891.99,2125.62,2309.08,349.61,345.29,34.25,0000 0000 0000 0000 000000
2014-12-29 10:59:22,0.24,5.24,0.00,24.19,27.47,30.44,4.71,27.26,1014.97,2029.95,1890.54,2124.60,2308.03,349.58,345.44,34.28,0000 0000 0000 0000 000000
2014-12-29 11:04:24,0.22,5.25,0.00,24.21,27.47,30.44,4.75,27.27,1014.96,2029.97,1889.13,2123.57,2306.99,350.06,345.78,34.31,0000 0000 0000 0000 000000
2014-12-29 11:09:25,0.17,5.26,0.00,24.24,27.47,30.43,4.71,27.38,1014.96,2029.97,1888.09,2122.74,2305.97,349.61,345.33,34.34,0000 0000 0000 0000 000000
2014-12-29 11:14:26,0.30,5.26,0.00,24.23,27.47,30.45,4.71,27.31,1015.07,2029.95,1886.57,2121.58,2304.74,349.83,345.59,34.36,0000 0000 0000 0000 000000
2014-12-29 11:19:28,0.28,5.27,0.00,24.26,27.47,30.44,4.72,27.30,1015.13,2029.96,1884.82,2120.42,2303.51,349.92,345.73,34.39,0000 0000 0000 0000 000000
2014-12-29 11:24:29,0.22,5.28,0.00,24.22,27.47,30.42,4.71,27.22,1015.15,2029.95,1883.32,2119.38,2302.50,349.72,345.53,34.42,0000 0000 0000 0000 000000
2014-12-29 11:29:31,0.19,5.29,0.00,24.24,27.47,30.40,4.76,27.23,1015.15,2029.91,1882.04,2118.40,2301.52,350.29,346.34,34.45,0000 0000 0000 0000 000000
2014-12-29 11:34:32,0.26,5.29,0.00,24.21,27.47,30.43,4.68,27.27,1015.15,2029.90,1880.51,2117.30,2300.32,350.22,345.97,34.48,0000 0000 0000 0000 000000
2014-12-29 11:39:33,0.18,5.30,0.00,24.19,27.47,30.41,4.74,27.42,1015.15,2029.89,1879.30,2116.44,2299.41,349.86,345.68,34.51,0000 0000 0000 0000 000000
2014-12-29 11:44:34,0.21,5.31,0.00,24.22,27.47,30.37,4.77,27.30,1015.16,2029.84,1878.05,2115.46,2298.38,349.82,345.62,34.54,0000 0000 0000 0000 000000
2014-12-29 11:49:36,0.23,5.31,0.00,24.22,27.47,30.40,4.80,27.24,1015.17,2029.90,1876.73,2114.69,2297.43,350.07,345.81,34.57,0000 0000 0000 0000 000000
2014-12-29 11:54:37,0.08,5.32,0.00,24.27,27.47,30.33,4.79,27.19,1015.16,2029.96,1875.94,2114.01,2296.89,350.10,345.76,34.60,0000 0000 0000 0000 000000
2014-12-29 11:59:39,0.22,5.32,0.00,24.27,27.47,30.35,4.73,27.16,1015.17,2029.93,1874.86,2113.25,2295.93,350.25,345.98,34.63,0000 0000 0000 0000 000000
2014-12-29 12:04:40,0.18,5.33,0.00,24.26,27.47,30.33,4.81,27.07,1015.16,2029.94,1873.75,2112.36,2295.06,350.55,346.19,34.66,0000 0000 0000 0000 000000
2014-12-29 12:09:41,0.17,5.33,0.00,24.27,27.47,30.34,4.73,27.19,1015.18,2029.97,1872.70,2111.77,2294.28,350.23,345.91,34.69,0000 0000 0000 0000 000000
2014-12-29 12:14:43,0.17,5.34,0.00,24.25,27.47,30.30,4.77,27.26,1015.19,2029.96,1871.62,2111.04,2293.54,350.17,345.94,34.72,0000 0000 0000 0000 000000
2014-12-29 12:19:44,0.14,5.34,0.00,24.32,27.47,30.33,4.71,27.27,1015.17,2029.97,1870.73,2110.49,2292.87,349.43,344.99,34.75,0000 0000 0000 0000 000000
2014-12-29 12:24:45,0.15,5.35,0.00,24.27,27.47,30.33,4.77,27.27,1015.16,2029.94,1869.68,2109.84,2292.04,350.29,346.03,34.78,0000 0000 0000 0000 000000
2014-12-29 12:29:47,0.16,5.35,0.00,24.25,27.47,30.33,4.71,27.16,1015.16,2029.98,1868.79,2109.05,2291.22,349.68,345.59,34.80,0000 0000 0000 0000 000000
2014-12-29 12:34:48,0.22,5.36,0.00,24.23,27.47,30.36,4.77,27.27,1015.16,2029.96,1867.64,2108.17,2290.28,350.57,346.38,34.83,0000 0000 0000 0000 000000
2014-12-29 12:39:49,0.18,5.36,0.00,24.26,27.47,30.35,4.75,27.29,1015.15,2029.99,1866.57,2107.53,2289.60,349.85,345.57,34.86,0000 0000 0000 0000 000000
2014-12-29 12:44:51,0.10,5.37,0.00,24.29,27.47,30.36,4.83,27.32,1015.16,2029.97,1865.68,2106.92,2288.89,350.23,345.88,34.89,0000 0000 0000 0000 000000
2014-12-29 12:49:52,0.19,5.37,0.00,24.25,27.47,30.33,4.79,27.38,1015.15,2029.97,1864.66,2106.07,2288.06,349.98,345.98,34.92,0000 0000 0000 0000 000000
2014-12-29 12:54:53,0.15,5.37,0.00,24.26,27.47,30.37,4.84,27.31,1015.15,2029.98,1863.87,2105.49,2287.44,350.47,346.25,34.95,0000 0000 0000 0000 000000
2014-12-29 12:59:54,0.09,3.05,0.00,24.21,27.47,30.32,4.11,24.14,1015.16,2031.34,2557.52,2636.43,2863.39,310.71,306.96,0.01,0000 0000 0000 0000 000002